Regional Weather Roundup
Issued by NWS

Home | Current Version | Previous Version | Graphics & Text | Print | Product List | Glossary On
Versions: 1 2 3 4 5 6 7 8 9 10 11 12 13 14 15 16 17 18 19 20 21 22 23 24 25 26 27 28 29 30 31 32 33 34 35 36 37 38 39 40 41 42 43 44 45 46 47 48 49 50
000
ASUS43 KMKX 022207
RWRWI

WISCONSIN REGIONAL WEATHER ROUNDUP
NATIONAL WEATHER SERVICE MILWAUKEE/SULLIVAN WI
500 PM CDT TUE JUN 02 2015

NOTE: "FAIR" INDICATES FEW OR NO CLOUDS BELOW 12,000 FEET WITH NO
SIGNIFICANT WEATHER AND/OR OBSTRUCTIONS TO VISIBILITY.

WIZ001-002-006>008-014>016-023>028-022300-
NORTHWEST WISCONSIN

CITY           SKY/WX    TMP DP  RH WIND       PRES   REMARKS
SUPERIOR ARPT  MOSUNNY   55  41  60 NE8       29.94F
ASHLAND        MOSUNNY   74  48  39 S9        29.95F
HAYWARD        MOSUNNY   73  48  41 S16       29.97F
SIREN          PTSUNNY   73  51  46 S15G22    29.95F
CUMBERLAND     MOSUNNY   72  52  49 S17       29.98F
RICE LAKE      MOSUNNY   74  48  40 S14G20    30.00F
CHETEK         MOSUNNY   71  51  48 SE13      30.00F
LADYSMITH      SUNNY     74  48  40 S12G17    30.03F
EAU CLAIRE     NOT AVBL
MENOMONIE      PTSUNNY   73  52  47 S14       30.00F
NEW RICHMOND   MOSUNNY   72  52  48 S14G22    29.97F
OSCEOLA        MOSUNNY   73  52  47 S17G23    29.98F
$$

WIZ003>005-009-010-017-018-022300-
NORTH CENTRAL WISCONSIN

CITY           SKY/WX    TMP DP  RH WIND       PRES   REMARKS
MANITOWISH WTR SUNNY     72  40  31 S12G22    30.01F
ARBOR VITAE    SUNNY     72  33  24 SW10G21   30.03F
WOODRUFF       SUNNY     72  33  24 SW10G21   30.03F
RHINELANDER    SUNNY     71  36  27 SW14G21   30.05F
EAGLE RIVER    SUNNY     72  28  19 SW12G18   30.04S
LAND O LAKES   SUNNY     74  26  16 SW8G17    30.04F
PHILLIPS       PTSUNNY   71  44  37 S10G18    30.02F
TOMAHAWK       SUNNY     71  38  30 SE5       30.06F
MEDFORD        SUNNY     68  43  39 S13       30.05F
MERRILL        SUNNY     72  38  29 SW8G17    30.07F
$$

WIZ029-030-035-036-043>047-022300-
CENTRAL WISCONSIN

CITY           SKY/WX    TMP DP  RH WIND       PRES   REMARKS
WAUSAU         SUNNY     72  38  29 S12       30.04F
MOSINEE        SUNNY     72  41  33 S13       30.07F
MARSHFIELD     SUNNY     73  40  30 S9G16     30.05F
STEVENS POINT  SUNNY     71  38  29 S8G21     30.07S
WAUPACA        SUNNY     75  40  27 S9        30.08F
WAUTOMA        NOT AVBL
WISC RAPIDS    SUNNY     75  37  25 SW10      30.07F
CAMP DOUGLAS   NOT AVBL
$$

WIZ011>013-019>022-031-037>040-048>050-022300-
NORTHEAST WISCONSIN

CITY           SKY/WX    TMP DP  RH WIND       PRES   REMARKS
ANTIGO         SUNNY     68  45  43 S13       30.08S
SHAWANO        SUNNY     73  38  28 S8        30.08F
OCONTO         MOSUNNY   67  42  41 S15       30.09F
STURGEON BAY   PTSUNNY   63  37  39 S10       30.14S
GREEN BAY      SUNNY     71  41  33 SE12G22   30.09F
MANITOWOC      NOT AVBL
APPLETON       SUNNY     70  37  30 SE13      30.10F
CLINTONVILLE   SUNNY     72  39  30 S9        30.08F
OSHKOSH        SUNNY     71  38  29 SE9G18    30.08F
$$

WIZ032>034-041-042-053>061-022300-
SOUTHWEST WISCONSIN

CITY           SKY/WX    TMP DP  RH WIND       PRES   REMARKS
LA CROSSE      PTSUNNY   74  49  41 S9        30.03F
SPARTA         PTSUNNY   73  42  32 S6        30.06F
VIROQUA        PTSUNNY   71  47  43 S6        30.07S
BOSCOBEL       MOSUNNY   74  47  38 VRB3      30.05F
PRAIRIE DU CHI PTSUNNY   71  47  42 S6        30.05F
PLATTEVILLE    MOSUNNY   72  46  39 S3        30.07F
$$

WIZ056-057-062-063-064-067-068-022300-
SOUTH CENTRAL WISCONSIN

CITY           SKY/WX    TMP DP  RH WIND       PRES   REMARKS
REEDSBURG      SUNNY     71  45  38 S10       30.07S
BARABOO/DELLS  SUNNY     71  42  35 S6        30.07F
LONE ROCK      NOT AVBL
MINERAL POINT  MOSUNNY   72  36  26 SE3       30.08F
MADISON        MOSUNNY   72  43  35 S9        30.07F
MIDDLETON      SUNNY     74  40  28 S10       30.08S
WATERTOWN      SUNNY     73  46  39 SE5       30.08S
MONROE         SUNNY     72  43  35 S10       30.07F
JANESVILLE     SUNNY     73  45  35 S13       30.07F
$$

WIZ051-052-058>065-066-070>072-022300-
SOUTHEAST WISCONSIN

CITY           SKY/WX    TMP DP  RH WIND       PRES   REMARKS
MILWAUKEE      MOSUNNY   63  45  51 SE12      30.12F
WAUKESHA       SUNNY     66  43  42 SE7       30.11F
MILWAUKEE/TIMM SUNNY     64  39  39 E8        30.12F
RACINE         SUNNY     65  43  44 SE9       30.13F
BURLINGTON     SUNNY     68  44  41 SE9       30.10S
KENOSHA        SUNNY     66  43  43 SE9       30.11F
FOND DU LAC    SUNNY     70  37  29 VRB7      30.10S
SHEBOYGAN      MOSUNNY   63  43  48 S10       30.12F
WEST BEND      SUNNY     64  39  39 SE7       30.11F
JUNEAU         SUNNY     71  42  34 SE3       30.09F
$$

LSZ147-162-022300-
LAKE SUPERIOR

STATION/POSITION TIME  TEMP    WIND        PRES    WAVE
                       AIR SEA DIR/SP/G            HT/PER
                 (UTC) (F)     (DEG/KT/KT) (MB)    (FT/S)
W MID LAKE BUOY  2050   41 38   60/  8/ 10   N/A     1
DEVILS ISLAND    2100   46      30/  9/ 11   N/A
PORT WING        2140   49      20/ 14/ 17   N/A
SAXON HARBOR     2000   76     190/  7/ 15   N/A
$$

LMZ867-665-643>646-022300-
LAKE MICHIGAN

STATION/POSITION TIME  TEMP    WIND        PRES    WAVE
                       AIR SEA DIR/SP/G            HT/PER
                 (UTC) (F)     (DEG/KT/KT) (MB)    (FT/S)
CHAMBERS ISLAND  2100   67     150/  8/ 13   N/A
N MID LAKE BUOY  2050   41 38  130/  6/  6   N/A     0
NORTHPORT PIER   2100   57     150/  7/ 10   N/A
SISTER BAY       2118   65     180/ 11/ 14   N/A
ALGOMA LAKESHORE 2109          210/  9/ 11   N/A
KEWAUNEE LAKESHO 2100   50     170/  9/  9   N/A
SHEBOYGAN LAKESH 2100   48     180/  7/  8   N/A
PORT WASHINGTON  2140   54      CALM  /  2   N/A
ATWATER BUOY     2100   48 49   70/  4/  4   N/A
MILWAUKEE LAKESH 2100   48      60/  5/  5   N/A
S MID LAKE BUOY  2050   48 39  310/  4/  4   N/A     0
KENOSHA   LAKESH 2100   52      40/  2/  2   N/A
$$

TC  - TEMPERATURE IN CELSIUS
VSB - VISIBILITY IN STATUTE MILES
WCI - WIND CHILL INDEX
HX  - HEAT INDEX




USA.gov is the U.S. government's official web portal to all federal, state and local government web resources and services.